Weather History for St. Thomas, VI

Change the Weather History Date:

Wednesday, February 26, 2014

  Actual Average Record
Temperature  
Mean Temperature 78 °F 79 °F  
Max Temperature 83 °F 85 °F 92 °F (1989)
Min Temperature 72 °F 73 °F 64 °F (1972)
Degree Days  
Heating Degree Days 0 0  
Month to date heating degree days 0 0  
Since 1 July heating degree days 0 0  
Cooling Degree Days 13 14  
Month to date cooling degree days 370 364  
Year to date cooling degree days 791 792  
Growing Degree Days 27 (Base 50)    
Moisture  
Dew Point 68 °F    
Average Humidity 71    
Maximum Humidity 84    
Minimum Humidity 58    
Precipitation  
Precipitation 0.00 in 0.04 in 0.68 in (1976)
Month to date precipitation 1.56 1.33  
Year to date precipitation 2.58 3.71  
Sea Level Pressure  
Sea Level Pressure 29.97 in    
Wind  
Wind Speed 11 mph (ESE)    
Max Wind Speed 18 mph    
Max Gust Speed 24 mph    
Visibility 10 miles    
Events      
T = Trace of Precipitation, MM = Missing Value Source: NWS Daily Summary

Daily Weather History Graph

Daily Weather History Graph

Search for Another Location

Airport:

Trip Planner

Search our weather history database for the weather conditions in past years. The results will help you decide how hot, cold, wet, or windy it might be!

Date:

Astronomy

Feb. 26, 2014 Rise Set
Actual Time 6:40 AM AST 6:24 PM AST
Civil Twilight 6:18 AM AST 6:46 PM AST
Nautical Twilight 5:53 AM AST 7:12 PM AST
Astronomical Twilight 5:28 AM AST 7:37 PM AST
Moon 4:05 AM AST 3:50 PM AST
Length of Visible Light 12h 28m
Length of Day
11h 44m
Waning Crescent, 10% of the Moon is Illuminated
Feb 26
Waning Crescent
Mar 1
New
Mar 8
First Quarter
Mar 16
Full
Mar 23
Last Quarter

Hourly Weather History & Observations

Time (AST) Temp. Heat Index Dew Point Humidity Pressure Visibility Wind Dir Wind Speed Gust Speed Precip Events Conditions
12:53 AM 73.0 °F - 64.9 °F 76% 30.01 in 10.0 mi East 4.6 mph - N/A   Clear
1:53 AM 73.0 °F - 66.0 °F 79% 29.98 in 10.0 mi East 4.6 mph - N/A   Clear
2:53 AM 73.0 °F - 66.9 °F 81% 29.96 in 10.0 mi East 4.6 mph - N/A   Clear
3:53 AM 72.0 °F - 66.0 °F 81% 29.95 in 10.0 mi East 4.6 mph - N/A   Clear
4:53 AM 73.0 °F - 66.9 °F 81% 29.95 in 10.0 mi East 6.9 mph - N/A   Clear
5:53 AM 73.9 °F - 66.9 °F 79% 29.95 in 10.0 mi ESE 11.5 mph - N/A   Clear
6:53 AM 73.9 °F - 66.9 °F 79% 29.97 in 10.0 mi East 8.1 mph - N/A   Partly Cloudy
7:53 AM 78.1 °F - 66.9 °F 68% 29.99 in 10.0 mi East 11.5 mph - N/A   Partly Cloudy
8:53 AM 80.1 °F 82.1 °F 66.0 °F 62% 30.02 in 10.0 mi SE 12.7 mph - N/A   Clear
9:53 AM 80.1 °F 82.3 °F 66.9 °F 64% 30.04 in 10.0 mi SSE 13.8 mph - N/A   Scattered Clouds
10:53 AM 81.0 °F 84.1 °F 69.1 °F 67% 30.03 in 10.0 mi SE 13.8 mph - N/A   Clear
11:53 AM 82.0 °F 84.5 °F 66.9 °F 60% 30.01 in 10.0 mi SE 11.5 mph - N/A   Clear
12:53 PM 82.0 °F 84.9 °F 68.0 °F 62% 29.98 in 10.0 mi SE 13.8 mph - N/A   Clear
1:53 PM 82.0 °F 84.9 °F 68.0 °F 62% 29.95 in 10.0 mi SSE 15.0 mph - N/A   Clear
2:53 PM 82.0 °F 84.9 °F 68.0 °F 62% 29.93 in 10.0 mi SSE 13.8 mph - N/A   Clear
3:53 PM 81.0 °F 84.4 °F 70.0 °F 69% 29.92 in 10.0 mi SE 17.3 mph 21.9 mph N/A   Clear
4:53 PM 79.0 °F - 69.1 °F 72% 29.92 in 10.0 mi SE 12.7 mph 21.9 mph N/A   Partly Cloudy
6:48 PM 77.0 °F - 68.0 °F 74% 29.93 in 10.0 mi ESE 11.5 mph - N/A   Mostly Cloudy
6:53 PM 77.0 °F - 69.1 °F 76% 29.93 in 10.0 mi East 11.5 mph - N/A   Mostly Cloudy
7:16 PM 77.0 °F - 69.8 °F 78% 29.94 in 10.0 mi ESE 11.5 mph 20.7 mph N/A   Overcast
7:53 PM 75.9 °F - 69.1 °F 79% 29.95 in 10.0 mi ESE 11.5 mph - N/A   Mostly Cloudy
8:53 PM 77.0 °F - 70.0 °F 79% 29.96 in 10.0 mi SE 10.4 mph - N/A   Clear
9:53 PM 77.0 °F - 69.1 °F 76% 29.97 in 10.0 mi SE 10.4 mph - N/A   Clear
10:53 PM 77.0 °F - 69.1 °F 76% 29.97 in 10.0 mi SE 11.5 mph - N/A   Clear
11:53 PM 77.0 °F - 70.0 °F 79% 29.96 in 10.0 mi SE 12.7 mph - N/A   Mostly Cloudy